• In Russia
  • List of Countries
  • For 7 days
  • Water Temperature
  • Satellite Maps
  • Weather Map
  • Weather Widgets
  • user-avatar
    Login

    Hourly Weather Linz

    Today, 30 May, Tuesday

    Time Temperature Precipitation Wind Pressure Humidity
    00:00 +16°C° 0 mm 1 mps 732 mmHg 80%
    01:00 +16°C° 0 mm 1 mps 732 mmHg 78%
    02:00 +16°C° 0 mm 1 mps 732 mmHg 78%
    03:00 +15°C° 0 mm 1 mps 732 mmHg 78%
    04:00 +15°C° 0 mm 1 mps 732 mmHg 78%
    05:00 +19°C° 0 mm 1 mps 732 mmHg 73%
    06:00 +21°C° 0 mm 1 mps 732 mmHg 68%
    07:00 +22°C° 0 mm 0 mps 733 mmHg 63%
    08:00 +25°C° 0 mm 1 mps 733 mmHg 59%
    09:00 +27°C° 0 mm 1 mps 733 mmHg 56%
    10:00 +28°C° 0 mm 1 mps 733 mmHg 53%
    11:00 +28°C° 0.1 mm 1 mps 733 mmHg 53%
    12:00 +29°C° 0.1 mm 1 mps 733 mmHg 53%
    13:00 +30°C° 0.1 mm 1 mps 733 mmHg 53%
    14:00 +30°C° 0.2 mm 1 mps 732 mmHg 53%
    15:00 +30°C° 0.2 mm 1 mps 732 mmHg 54%
    16:00 +30°C° 0.2 mm 1 mps 732 mmHg 55%
    17:00 +28°C° 1 mm 1 mps 732 mmHg 64%
    18:00 +26°C° 1 mm 2 mps 732 mmHg 74%
    19:00 +24°C° 1 mm 2 mps 732 mmHg 84%
    20:00 +23°C° 0.7 mm 2 mps 733 mmHg 87%
    21:00 +21°C° 0.7 mm 2 mps 733 mmHg 90%
    22:00 +20°C° 0.7 mm 2 mps 734 mmHg 92%
    23:00 +20°C° 0.2 mm 2 mps 734 mmHg 93%

    Tomorrow, 31 May, Wednesday

    Time Temperature Precipitation Wind Pressure Humidity
    00:00 +19°C° 0.2 mm 2 mps 734 mmHg 94%
    01:00 +19°C° 0.2 mm 2 mps 734 mmHg 95%
    02:00 +18°C° 0.3 mm 2 mps 734 mmHg 95%
    03:00 +18°C° 0.3 mm 2 mps 734 mmHg 96%
    04:00 +18°C° 0.3 mm 1 mps 734 mmHg 96%
    05:00 +19°C° 0.2 mm 1 mps 735 mmHg 94%
    06:00 +19°C° 0.2 mm 2 mps 735 mmHg 92%
    07:00 +20°C° 0.2 mm 2 mps 736 mmHg 90%
    08:00 +21°C° 0.2 mm 2 mps 736 mmHg 86%
    09:00 +23°C° 0.2 mm 2 mps 736 mmHg 81%
    10:00 +25°C° 0.2 mm 3 mps 736 mmHg 76%
    11:00 +25°C° 0.3 mm 3 mps 736 mmHg 74%
    12:00 +26°C° 0.3 mm 3 mps 736 mmHg 71%
    13:00 +26°C° 0.3 mm 3 mps 736 mmHg 69%
    14:00 +26°C° 0.4 mm 2 mps 735 mmHg 70%
    15:00 +26°C° 0.4 mm 2 mps 735 mmHg 71%
    16:00 +26°C° 0.4 mm 2 mps 735 mmHg 72%
    17:00 +25°C° 0.3 mm 1 mps 735 mmHg 77%
    18:00 +24°C° 0.3 mm 1 mps 735 mmHg 83%
    19:00 +23°C° 0.3 mm 1 mps 735 mmHg 88%
    20:00 +21°C° 0.1 mm 1 mps 735 mmHg 90%
    21:00 +20°C° 0.1 mm 1 mps 736 mmHg 91%
    22:00 +18°C° 0.1 mm 1 mps 736 mmHg 93%
    23:00 +18°C° 0.1 mm 1 mps 736 mmHg 93%

    Day after tomorrow, 1 June, Thursday

    Time Temperature Precipitation Wind Pressure Humidity
    00:00 +18°C° 0.1 mm 1 mps 736 mmHg 94%
    01:00 +18°C° 0.1 mm 1 mps 736 mmHg 94%
    02:00 +16°C° 0.1 mm 1 mps 736 mmHg 95%
    03:00 +15°C° 0.1 mm 1 mps 736 mmHg 95%
    04:00 +15°C° 0.1 mm 1 mps 736 mmHg 96%
    05:00 +16°C° 0 mm 1 mps 736 mmHg 93%
    06:00 +19°C° 0 mm 1 mps 736 mmHg 90%
    07:00 +20°C° 0 mm 1 mps 737 mmHg 88%
    08:00 +21°C° 0.1 mm 1 mps 737 mmHg 83%
    09:00 +22°C° 0.1 mm 1 mps 737 mmHg 78%
    10:00 +23°C° 0.1 mm 1 mps 737 mmHg 74%
    11:00 +24°C° 0.2 mm 1 mps 737 mmHg 70%
    12:00 +25°C° 0.2 mm 1 mps 737 mmHg 66%
    13:00 +26°C° 0.2 mm 1 mps 737 mmHg 63%
    14:00 +26°C° 0.1 mm 1 mps 737 mmHg 63%
    15:00 +26°C° 0.1 mm 1 mps 736 mmHg 63%
    16:00 +26°C° 0.1 mm 1 mps 736 mmHg 63%
    17:00 +24°C° 0.1 mm 1 mps 736 mmHg 70%
    18:00 +23°C° 0.1 mm 1 mps 736 mmHg 76%
    19:00 +22°C° 0.1 mm 1 mps 736 mmHg 82%
    20:00 +20°C° 0 mm 2 mps 736 mmHg 85%
    21:00 +18°C° 0 mm 2 mps 736 mmHg 88%
    22:00 +17°C° 0 mm 2 mps 736 mmHg 91%
    23:00 +16°C° 0 mm 2 mps 736 mmHg 92%

    2 June, Friday

    Time Temperature Precipitation Wind Pressure Humidity
    00:00 +16°C° 0 mm 2 mps 736 mmHg 93%
    01:00 +15°C° 0 mm 2 mps 736 mmHg 93%
    02:00 +15°C° 0 mm 2 mps 736 mmHg 93%
    03:00 +14°C° 0 mm 1 mps 736 mmHg 93%
    04:00 +14°C° 0 mm 1 mps 736 mmHg 92%
    05:00 +16°C° 0 mm 1 mps 736 mmHg 87%
    06:00 +19°C° 0 mm 1 mps 736 mmHg 82%
    07:00 +20°C° 0 mm 1 mps 736 mmHg 76%
    08:00 +21°C° 0 mm 2 mps 736 mmHg 72%
    09:00 +23°C° 0 mm 2 mps 736 mmHg 68%
    10:00 +25°C° 0 mm 2 mps 736 mmHg 64%
    11:00 +25°C° 0.1 mm 2 mps 736 mmHg 64%
    12:00 +26°C° 0.1 mm 2 mps 735 mmHg 63%
    13:00 +27°C° 0.1 mm 3 mps 735 mmHg 63%
    14:00 +26°C° 0.2 mm 3 mps 735 mmHg 64%
    15:00 +26°C° 0.2 mm 3 mps 734 mmHg 66%
    16:00 +26°C° 0.2 mm 2 mps 734 mmHg 67%
    17:00 +25°C° 0.2 mm 2 mps 734 mmHg 73%
    18:00 +24°C° 0.2 mm 2 mps 734 mmHg 79%
    19:00 +23°C° 0.2 mm 2 mps 734 mmHg 85%
    20:00 +20°C° 0.1 mm 2 mps 734 mmHg 88%
    21:00 +19°C° 0.1 mm 1 mps 734 mmHg 91%
    22:00 +18°C° 0.1 mm 1 mps 734 mmHg 93%
    23:00 +16°C° 0.3 mm 1 mps 734 mmHg 93%

    3 June, Saturday

    Time Temperature Precipitation Wind Pressure Humidity
    00:00 +16°C° 0.3 mm 1 mps 733 mmHg 94%
    01:00 +15°C° 0.3 mm 1 mps 733 mmHg 94%
    02:00 +15°C° 0.4 mm 1 mps 733 mmHg 94%
    03:00 +15°C° 0.4 mm 1 mps 733 mmHg 94%
    04:00 +14°C° 0.4 mm 1 mps 733 mmHg 94%
    05:00 +16°C° 0 mm 1 mps 733 mmHg 91%
    06:00 +20°C° 0 mm 1 mps 733 mmHg 87%
    07:00 +20°C° 0 mm 0 mps 734 mmHg 84%
    08:00 +23°C° 0 mm 1 mps 733 mmHg 78%
    09:00 +25°C° 0 mm 1 mps 733 mmHg 72%
    10:00 +26°C° 0 mm 1 mps 733 mmHg 66%
    11:00 +27°C° 0.3 mm 1 mps 733 mmHg 64%
    12:00 +28°C° 0.3 mm 1 mps 733 mmHg 62%
    13:00 +28°C° 0.3 mm 1 mps 733 mmHg 60%
    14:00 +28°C° 0.2 mm 1 mps 733 mmHg 59%
    15:00 +28°C° 0.2 mm 1 mps 732 mmHg 59%
    16:00 +28°C° 0.2 mm 1 mps 732 mmHg 59%
    17:00 +27°C° 0.2 mm 1 mps 732 mmHg 66%
    18:00 +26°C° 0.2 mm 1 mps 732 mmHg 73%
    19:00 +25°C° 0.2 mm 1 mps 732 mmHg 81%
    20:00 +23°C° 0.1 mm 1 mps 732 mmHg 84%
    21:00 +20°C° 0.1 mm 1 mps 732 mmHg 87%
    22:00 +18°C° 0.1 mm 1 mps 732 mmHg 90%
    23:00 +18°C° 0 mm 1 mps 732 mmHg 89%

    4 June, Sunday

    Time Temperature Precipitation Wind Pressure Humidity
    00:00 +18°C° 0 mm 1 mps 732 mmHg 89%
    01:00 +18°C° 0 mm 1 mps 731 mmHg 88%
    02:00 +16°C° 0 mm 1 mps 731 mmHg 88%
    03:00 +16°C° 0 mm 1 mps 731 mmHg 89%
    04:00 +16°C° 0 mm 1 mps 731 mmHg 89%
    05:00 +19°C° 0 mm 1 mps 731 mmHg 84%
    06:00 +21°C° 0 mm 1 mps 731 mmHg 79%
    07:00 +23°C° 0 mm 1 mps 731 mmHg 74%
    08:00 +25°C° 0 mm 1 mps 731 mmHg 68%
    09:00 +27°C° 0 mm 1 mps 732 mmHg 62%
    10:00 +28°C° 0 mm 1 mps 732 mmHg 56%
    11:00 +29°C° 0 mm 1 mps 731 mmHg 55%
    12:00 +30°C° 0 mm 2 mps 731 mmHg 53%
    13:00 +30°C° 0 mm 2 mps 731 mmHg 51%
    14:00 +30°C° 0 mm 2 mps 730 mmHg 52%
    15:00 +31°C° 0 mm 2 mps 730 mmHg 53%
    16:00 +31°C° 0 mm 2 mps 729 mmHg 55%
    17:00 +29°C° 0.2 mm 2 mps 729 mmHg 63%
    18:00 +27°C° 0.2 mm 2 mps 729 mmHg 71%
    19:00 +26°C° 0.2 mm 2 mps 729 mmHg 78%
    20:00 +24°C° 0.4 mm 2 mps 729 mmHg 81%
    21:00 +23°C° 0.4 mm 2 mps 729 mmHg 84%
    22:00 +20°C° 0.4 mm 2 mps 729 mmHg 87%
    23:00 +20°C° 0.6 mm 2 mps 729 mmHg 88%
    Show more